Date String (YYYY-MM-DD hh:mm:ss) UTC,Instrument flags,Ambient pressure (hPa),Sample flow (lpm),Bypass flow (lpm),Sample temperature (°C),Ambient temperature (°C),ASC tube jacket temperature (°C),LED temperature (°C),Box temperature (°C),Sample RH (%),Span deviation,Mass concentration (μg/m³),Mass concentration (μg/m³),Mass concentration (μg/m³)
DateTimeUTC,F1_M11,P_M11,Q1_M11,Q2_M11,T1_M11,T2_M11,T3_M11,T4_M11,T5_M11,U1_M11,ZSPAN_M11,X0_M11,X2_M11,X1_M11
2021-10-01 15:00:00,,0831.7,4.99,0.00,28.2,27.4,00.0,37.3,30.0,22.7,0002.1,0009.48,0005.02,0004.27
2021-10-01 15:01:00,,0831.7,5.00,0.00,28.2,27.4,00.0,37.3,30.0,22.6,0001.9,0009.20,0005.05,0004.28
2021-10-01 15:02:00,,0831.7,5.00,0.00,28.2,27.4,00.0,37.3,30.0,22.7,0001.8,0009.31,0005.04,0004.29
2021-10-01 15:03:00,,0831.7,4.99,0.00,28.2,27.4,00.0,37.3,30.0,23.0,0002.2,0009.56,0005.04,0004.32
2021-10-01 15:04:00,,0831.7,5.00,0.00,28.2,27.4,00.0,37.3,30.0,23.4,0001.9,0010.22,0005.07,0004.34
2021-10-01 15:05:00,,0831.7,5.00,0.00,28.2,27.4,00.0,37.3,30.0,23.4,0001.9,0010.86,0005.09,0004.36
2021-10-01 15:06:00,,0831.7,5.00,0.00,28.2,27.4,00.0,37.3,30.0,23.3,0002.1,0010.80,0005.08,0004.37
2021-10-01 15:07:00,,0831.7,5.01,0.00,28.2,27.4,00.0,37.3,30.0,23.0,0001.9,0011.07,0005.07,0004.36
2021-10-01 15:08:00,,0831.7,5.01,0.00,28.2,27.4,00.0,37.3,30.0,22.9,0001.9,0011.06,0005.05,0004.38
2021-10-01 15:09:00,,0831.7,4.99,0.00,28.2,27.4,00.0,37.3,30.0,23.1,0001.9,0011.05,0005.04,0004.39
2021-10-01 15:10:00,,0831.7,5.01,0.00,28.2,27.4,00.0,37.3,30.0,23.2,0001.5,0011.26,0005.02,0004.39
2021-10-01 15:11:00,,0831.7,5.00,0.00,28.2,27.4,00.0,37.3,30.0,23.2,0001.2,0011.30,0005.03,0004.40
2021-10-01 15:12:00,,0831.7,5.00,0.00,28.3,27.4,00.0,37.3,30.0,22.9,0001.3,0011.25,0005.02,0004.40
2021-10-01 15:13:00,,0831.7,4.99,0.00,28.3,27.5,00.0,37.3,30.1,22.8,0001.5,0010.89,0005.01,0004.39
2021-10-01 15:14:00,,0831.7,5.01,0.00,28.3,27.5,00.0,37.3,30.1,22.9,0001.4,0010.60,0004.99,0004.38
2021-10-01 15:15:00,,0831.7,5.00,0.00,28.3,27.5,00.0,37.3,30.1,23.0,0001.6,0010.37,0004.99,0004.38
2021-10-01 15:16:00,,0831.7,4.99,0.00,28.3,27.5,00.0,37.3,30.1,23.2,0001.3,0010.68,0005.00,0004.38
2021-10-01 15:17:00,,0831.7,5.00,0.00,28.3,27.6,00.0,37.3,30.2,23.0,0000.9,0010.67,0004.96,0004.37
2021-10-01 15:18:00,,0831.7,4.99,0.00,28.3,27.6,00.0,37.4,30.2,22.8,0000.9,0010.44,0004.91,0004.36
2021-10-01 15:19:00,,0831.7,5.00,0.00,28.4,27.6,00.0,37.4,30.2,22.8,0000.7,0010.33,0004.91,0004.34
2021-10-01 15:20:00,,0831.7,5.00,0.00,28.4,27.6,00.0,37.4,30.2,22.6,0001.1,0010.30,0004.88,0004.34
2021-10-01 15:21:00,,0831.7,5.01,0.00,28.4,27.6,00.0,37.4,30.2,22.3,0001.1,0010.10,0004.86,0004.32
2021-10-01 15:22:00,,0831.7,4.99,0.00,28.4,27.6,00.0,37.4,30.2,22.0,0001.9,0010.06,0004.83,0004.31
2021-10-01 15:23:00,,0831.7,5.00,0.00,28.4,27.6,00.0,37.4,30.2,21.8,0001.5,0010.03,0004.80,0004.29
2021-10-01 15:24:00,,0831.7,4.99,0.00,28.4,27.7,00.0,37.4,30.3,21.9,0000.9,0010.01,0004.79,0004.28
2021-10-01 15:25:00,,0831.7,5.00,0.00,28.5,27.7,00.0,37.5,30.3,21.6,0000.7,0010.05,0004.79,0004.26
2021-10-01 15:26:00,,0831.7,4.99,0.00,28.5,27.7,00.0,37.5,30.3,21.6,0000.6,0009.60,0004.74,0004.25
2021-10-01 15:27:00,,0831.7,5.01,0.00,28.5,27.7,00.0,37.5,30.3,21.7,0000.8,0008.67,0004.71,0004.24
2021-10-01 15:28:00,,0831.7,5.01,0.00,28.5,27.7,00.0,37.5,30.3,21.7,0001.1,0008.57,0004.71,0004.23
2021-10-01 15:29:00,,0831.7,4.99,0.00,28.5,27.7,00.0,37.5,30.3,21.4,0001.1,0008.54,0004.74,0004.23
2021-10-01 15:30:00,,0831.7,5.00,0.00,28.5,27.7,00.0,37.5,30.4,21.5,0001.4,0008.63,0004.73,0004.23
2021-10-01 15:31:00,,0831.7,5.01,0.00,28.6,27.8,00.0,37.6,30.4,21.8,0001.2,0008.60,0004.74,0004.24
2021-10-01 15:32:00,,0831.7,5.01,0.00,28.6,27.8,00.0,37.6,30.4,21.7,0000.8,0008.26,0004.75,0004.24
2021-10-01 15:33:00,,0831.7,5.00,0.00,28.6,27.8,00.0,37.6,30.4,21.7,0000.3,0008.37,0004.79,0004.25
2021-10-01 15:34:00,,0831.8,5.00,0.00,28.6,27.8,00.0,37.6,30.5,21.7,0001.2,0008.78,0004.82,0004.27
2021-10-01 15:35:00,,0831.7,5.00,0.00,28.6,27.9,00.0,37.6,30.5,21.5,0001.4,0008.70,0004.80,0004.28
2021-10-01 15:36:00,,0831.7,4.99,0.00,28.7,27.9,00.0,37.6,30.5,21.5,0001.3,0008.71,0004.82,0004.28
2021-10-01 15:37:00,,0831.7,5.00,0.00,28.7,27.9,00.0,37.6,30.5,21.1,0001.4,0008.66,0004.85,0004.29
2021-10-01 15:38:00,,0831.7,5.01,0.00,28.7,27.9,00.0,37.7,30.5,21.5,0001.9,0008.74,0004.86,0004.29
2021-10-01 15:39:00,,0831.7,4.99,0.00,28.7,27.9,00.0,37.7,30.6,21.1,0001.7,0008.83,0004.90,0004.31
2021-10-01 15:40:00,,0831.7,5.00,0.00,28.7,28.0,00.0,37.7,30.6,21.3,0001.7,0008.85,0004.89,0004.32
2021-10-01 15:41:00,,0831.8,5.00,0.00,28.7,28.0,00.0,37.7,30.6,21.0,0001.8,0008.86,0004.92,0004.34
2021-10-01 15:42:00,,0831.7,5.00,0.00,28.8,28.0,00.0,37.7,30.6,21.5,0001.4,0008.80,0004.91,0004.34
2021-10-01 15:43:00,,0831.7,5.00,0.00,28.8,28.0,00.0,37.7,30.6,21.9,0002.0,0008.80,0004.91,0004.34
2021-10-01 15:44:00,,0831.7,5.00,0.00,28.8,28.0,00.0,37.8,30.6,21.9,0002.3,0008.64,0004.86,0004.34
2021-10-01 15:45:00,,0831.7,5.00,0.00,28.8,28.1,00.0,37.8,30.6,22.2,0002.4,0008.25,0004.85,0004.34
2021-10-01 15:46:00,,0831.7,4.99,0.00,28.8,28.1,00.0,37.8,30.7,22.2,0002.3,0008.33,0004.88,0004.34
2021-10-01 15:47:00,,0831.7,5.00,0.00,28.9,28.1,00.0,37.8,30.7,22.3,0002.0,0008.23,0004.85,0004.34
2021-10-01 15:48:00,,0831.7,5.00,0.00,28.9,28.1,00.0,37.8,30.7,22.3,0001.9,0008.41,0004.81,0004.32
2021-10-01 15:49:00,,0831.7,4.98,0.00,28.9,28.1,00.0,37.9,30.7,22.2,0001.6,0008.59,0004.78,0004.31
2021-10-01 15:50:00,,0831.7,5.00,0.00,28.9,28.1,00.0,37.9,30.7,22.2,0001.7,0008.55,0004.75,0004.30
2021-10-01 15:51:00,,0831.7,5.01,0.00,28.9,28.1,00.0,37.9,30.7,22.0,0001.6,0008.54,0004.75,0004.30
2021-10-01 15:52:00,,0831.6,5.00,0.00,28.9,28.1,00.0,37.9,30.7,22.0,0001.5,0008.74,0004.74,0004.28
2021-10-01 15:53:00,,0831.7,5.00,0.00,28.9,28.1,00.0,37.9,30.7,22.1,0001.6,0009.35,0004.77,0004.29
2021-10-01 15:54:00,,0831.7,5.00,0.00,28.9,28.1,00.0,37.9,30.8,22.2,0001.0,0009.46,0004.79,0004.29
2021-10-01 15:55:00,,0831.7,4.99,0.00,28.9,28.1,00.0,37.9,30.8,22.2,0000.5,0009.46,0004.77,0004.29
2021-10-01 15:56:00,,0831.6,5.01,0.00,29.0,28.2,00.0,38.0,30.8,21.5,-000.0,0009.80,0004.79,0004.28
2021-10-01 15:57:00,,0831.6,5.00,0.00,29.0,28.2,00.0,38.0,30.8,21.3,0000.4,0010.20,0004.79,0004.28
2021-10-01 15:58:00,,0831.6,5.00,0.00,29.0,28.2,00.0,38.0,30.8,21.4,0000.4,0010.82,0004.82,0004.29
2021-10-01 15:59:00,,0831.6,4.99,0.00,29.0,28.2,00.0,38.0,30.8,21.4,0000.6,0010.58,0004.84,0004.31
